Temperature
2 3 3 2 2 1 1 2 2 3 4 4 4 4 4 4 3 3 2 2 2 2 2 2 2 2 1 1 2 2 1 1 1 1 1 1 1 1 1 1 1 1 1 1
1 2 2 1 2 2 1 1 2 2 3 4 4 4 3 3 3 2 2 2 1 1 1 1 1 1 1 1 1 1 1 1 1 1 1 1 1 1 1 1 1 0 0 1
1 1 1 1 1 1 1 1 1 2 3 3 3 2 2 2 2 2 1 1 1 1 1 1 1 1 1 1 1 0 0 0 0 0 0 0 0 0 0 0 0 -0 0 0
1 1 0 2 2 2 1 1 1 2 2 2 2 2 2 2 2 1 1 1 1 0 0 0 0 0 0 0 0 0 0 0 0 0 -0 -0 -0 -0 -0 -0 -0 -0 -0 -0
0 0 1 2 2 1 1 0 1 1 1 1 1 1 1 2 1 1 0 0 0 -0 -0 -0 0 0 0 0 -0 -0 -0 -0 -0 -1 -1 -1 -1 -1 -1 -1 -1 -1 -1 -1
-0 0 1 2 1 1 1 -0 1 1 0 0 0 -1 -0 1 0 0 -0 -0 -0 -0 -1 -1 -1 -0 -1 -0 -0 -0 -1 -1 -1 -1 -1 -1 -1 -1 -1 -1 -1 -1 -1 -1
-1 -0 0 1 0 1 0 1 1 1 0 -0 -1 -1 0 -0 -0 -1 -1 -1 -1 -1 -1 -1 -1 -1 -1 -1 -1 -1 -1 -1 -1 -1 -2 -2 -2 -2 -2 -2 -2 -2 -2 -2
-1 -1 0 -0 -0 -1 -0 1 1 0 -0 -0 -0 -1 -1 -1 -1 -1 -1 -1 -1 -1 -1 -1 -1 -1 -1 -1 -1 -2 -2 -2 -2 -2 -2 -2 -2 -2 -2 -2 -2 -2 -2 -2
-1 -0 0 1 0 1 0 -0 -0 -1 -1 -1 -1 -1 -1 -2 -2 -2 -2 -2 -2 -2 -2 -2 -2 -2 -2 -2 -2 -2 -2 -2 -2 -2 -2 -2 -2 -2 -2 -3 -3 -3 -3 -3
-2 -1 -0 0 0 0 -0 -1 -1 -1 -1 -1 -2 -2 -2 -2 -2 -2 -2 -2 -2 -2 -2 -2 -2 -2 -2 -3 -3 -3 -2 -2 -2 -2 -2 -3 -3 -3 -3 -3 -3 -3 -3 -4
-3 -2 -1 0 -0 -0 -1 -1 -1 -1 -2 -2 -2 -2 -2 -2 -3 -3 -3 -3 -3 -3 -3 -2 -2 -3 -3 -3 -3 -3 -3 -3 -3 -3 -3 -3 -3 -3 -3 -3 -4 -4 -4 -4
-2 -1 -2 -1 -1 -1 -1 -1 -2 -2 -2 -2 -2 -3 -3 -3 -3 -3 -3 -3 -3 -3 -3 -3 -3 -3 -3 -3 -3 -3 -3 -3 -3 -3 -3 -3 -3 -3 -4 -4 -4 -4 -4 -4
-1 -1 -1 -1 -1 -1 -2 -2 -2 -2 -2 -3 -3 -3 -3 -3 -3 -3 -3 -3 -3 -3 -3 -3 -3 -3 -3 -3 -3 -3 -3 -4 -4 -4 -4 -4 -4 -4 -4 -4 -4 -4 -4 -4
-1 -1 -2 -2 -2 -2 -2 -2 -2 -3 -3 -3 -3 -3 -3 -3 -3 -3 -3 -3 -3 -3 -3 -3 -3 -3 -3 -3 -3 -4 -4 -4 -4 -4 -4 -4 -4 -5 -5 -5 -5 -5 -5 -5
-2 -2 -3 -3 -3 -3 -3 -3 -3 -3 -3 -3 -3 -3 -4 -4 -4 -3 -4 -4 -4 -4 -4 -4 -4 -4 -4 -4 -4 -4 -4 -4 -4 -4 -4 -5 -5 -5 -5 -5 -5 -5 -5 -5
-3 -3 -3 -3 -3 -3 -3 -3 -4 -3 -4 -4 -4 -4 -4 -4 -4 -4 -4 -4 -4 -4 -4 -4 -4 -4 -4 -4 -4 -4 -4 -4 -5 -5 -5 -5 -5 -5 -5 -6 -6 -5 -5 -5
-3 -4 -3 -3 -4 -4 -4 -4 -4 -4 -4 -4 -4 -4 -4 -4 -4 -4 -4 -4 -4 -4 -4 -4 -4 -4 -4 -4 -4 -4 -4 -5 -5 -5 -5 -5 -5 -6 -6 -6 -6 -6 -5 -5
-4 -4 -4 -4 -4 -4 -4 -4 -4 -4 -4 -4 -4 -4 -5 -5 -5 -5 -4 -5 -4 -4 -4 -4 -4 -4 -5 -5 -5 -5 -5 -5 -5 -5 -5 -6 -6 -6 -6 -6 -6 -6 -6 -6
-4 -4 -4 -4 -4 -4 -4 -4 -4 -4 -4 -4 -5 -5 -5 -5 -5 -5 -5 -5 -5 -5 -5 -5 -5 -5 -5 -5 -5 -5 -5 -5 -6 -6 -6 -6 -6 -6 -6 -6 -6 -6 -6 -6
-4 -4 -4 -4 -4 -4 -4 -4 -4 -5 -5 -5 -5 -5 -5 -5 -5 -5 -5 -5 -5 -5 -5 -5 -5 -5 -5 -5 -5 -5 -6 -6 -6 -6 -6 -6 -6 -6 -6 -6 -6 -6 -6 -6
-4 -4 -4 -5 -4 -4 -5 -5 -5 -5 -5 -5 -5 -5 -5 -5 -5 -6 -6 -6 -5 -5 -5 -5 -5 -6 -6 -6 -6 -6 -6 -6 -6 -6 -6 -6 -6 -6 -6 -6 -6 -6 -6 -6
-5 -5 -5 -5 -5 -5 -5 -5 -5 -5 -5 -6 -6 -6 -6 -6 -6 -6 -6 -6 -6 -5 -6 -5 -6 -6 -6 -6 -6 -6 -6 -6 -6 -6 -6 -6 -6 -6 -6 -6 -6 -6 -6 -6
-5 -5 -5 -5 -5 -5 -5 -5 -6 -6 -6 -6 -6 -6 -6 -6 -6 -6 -6 -6 -6 -6 -6 -6 -6 -6 -6 -6 -6 -6 -6 -6 -6 -6 -6 -6 -6 -6 -6 -6 -6 -6 -6 -6
-5 -5 -5 -5 -6 -6 -6 -6 -6 -6 -6 -6 -6 -6 -6 -6 -6 -6 -6 -6 -6 -6 -6 -6 -6 -6 -6 -6 -6 -6 -6 -6 -6 -6 -6 -6 -6 -6 -6 -6 -6 -6 -6 -6
-5 -5 -5 -6 -6 -6 -6 -6 -6 -6 -7 -6 -7 -7 -7 -7 -7 -6 -6 -6 -6 -6 -6 -6 -6 -6 -6 -6 -6 -6 -6 -6 -6 -6 -7 -7 -7 -7 -7 -7 -6 -6 -6 -6
-6 -6 -6 -6 -6 -6 -6 -7 -7 -7 -7 -7 -7 -7 -7 -7 -7 -7 -7 -7 -6 -6 -6 -6 -6 -6 -6 -6 -6 -6 -7 -7 -7 -7 -7 -7 -7 -7 -7 -7 -7 -7 -7 -7
-6 -6 -6 -6 -6 -7 -7 -7 -7 -7 -7 -7 -7 -7 -7 -7 -7 -7 -7 -7 -7 -7 -7 -7 -7 -7 -7 -7 -7 -7 -7 -7 -7 -7 -7 -7 -7 -7 -7 -7 -7 -7 -7 -7
Wind_Speed
7 6 4 6 7 7 10 9 8 8 9 7 4 4 2 1 1 2 3 3 3 3 2 2 2 1 1 1 1 1 1 1 1 2 2 2 2 2 3 2 3 3 3 3
6 6 5 8 9 10 11 10 11 11 12 5 3 3 3 3 2 2 3 2 3 3 3 3 2 2 2 1 1 1 1 2 1 1 2 2 3 2 2 2 2 2 3 3
4 2 4 8 10 10 7 7 7 11 9 4 3 3 3 3 3 4 3 2 3 3 3 3 3 2 2 2 2 1 2 1 1 1 2 3 3 2 2 2 2 3 3 3
3 2 7 7 1 5 7 8 8 7 5 3 3 4 4 3 3 3 3 3 3 3 3 3 3 2 1 2 2 1 2 2 1 1 2 2 2 3 3 2 3 3 3 3
2 4 8 5 2 2 4 7 5 6 5 4 3 4 3 1 1 2 2 3 3 2 3 3 2 2 2 2 2 2 2 2 2 2 2 3 3 3 3 2 2 2 2 3
3 4 6 3 0 0 1 5 2 2 3 3 2 3 4 2 3 3 3 2 2 3 3 3 2 2 2 3 2 2 3 3 3 2 3 3 3 3 2 2 3 2 3 3
6 6 7 2 1 2 2 4 2 2 2 2 3 4 4 4 4 3 3 3 3 3 3 3 2 2 2 3 3 3 3 3 3 3 2 3 2 2 2 2 2 3 3 3
5 6 7 2 2 3 4 2 2 3 3 3 4 4 4 4 3 3 3 3 3 3 3 3 2 2 3 3 3 2 2 3 3 2 2 2 2 2 2 2 2 2 2 2
6 6 2 2 3 3 1 2 3 3 4 3 4 4 4 4 3 3 3 3 3 3 4 3 2 2 3 3 2 2 3 3 2 2 2 2 2 2 1 2 2 2 2 2
4 6 4 4 4 3 3 4 4 4 4 3 4 4 4 4 4 4 3 3 3 3 4 4 3 3 3 3 2 2 3 3 2 2 2 2 2 2 2 2 3 2 3 3
6 6 5 4 3 3 4 4 4 4 3 4 4 4 4 4 4 4 4 3 3 3 4 5 4 3 3 2 2 2 3 2 2 2 2 2 2 2 3 3 4 4 3 3
6 4 4 5 3 3 3 4 4 4 4 4 3 4 4 4 4 3 4 3 3 4 4 5 4 4 3 3 2 2 3 3 2 2 2 2 2 2 3 4 5 6 6 5
5 4 4 4 3 3 4 4 4 3 4 4 3 3 3 4 4 3 4 3 4 4 5 5 4 4 4 3 2 2 3 3 2 2 2 2 2 2 3 3 4 6 6 6
3 3 4 4 4 4 3 3 3 3 3 3 3 3 3 3 3 4 4 4 4 4 4 4 4 5 4 3 2 2 3 3 3 2 2 2 2 2 2 3 3 3 4 5
3 3 5 4 3 3 2 2 3 3 3 3 3 3 3 3 4 5 4 4 4 4 4 4 4 4 3 3 2 3 3 3 2 2 2 2 3 2 3 3 3 3 2 3
4 4 3 3 4 3 3 3 3 4 3 3 3 3 4 4 4 4 4 3 3 4 4 4 4 4 3 2 2 2 3 4 3 2 2 2 2 2 3 3 3 3 3 3
3 3 3 4 5 5 4 4 4 4 4 4 4 4 3 3 4 4 4 3 4 4 4 4 5 4 3 2 2 2 2 3 4 3 2 3 3 3 3 3 3 3 3 4
3 4 4 4 4 4 5 4 4 4 4 4 3 3 3 3 4 5 4 4 4 4 4 4 4 3 3 3 2 2 2 2 2 3 3 3 3 3 3 3 4 4 3 4
3 3 3 3 3 3 3 4 4 3 3 3 3 4 4 4 4 4 4 3 4 5 5 3 4 3 3 4 3 2 2 3 3 3 3 4 4 3 3 3 3 3 3 3
2 2 2 2 2 2 3 3 3 3 3 2 3 3 4 4 4 4 4 4 4 4 4 4 3 3 3 3 3 2 2 3 3 3 3 3 3 3 3 3 3 3 3 3
2 2 2 2 2 3 3 3 3 3 3 2 3 4 4 4 4 3 3 4 4 3 3 4 3 3 2 3 3 2 2 2 2 2 3 3 3 3 3 3 3 3 3 3
2 2 2 2 3 3 3 3 3 3 3 3 3 3 3 4 4 3 4 4 4 5 3 2 2 3 3 3 2 2 2 2 2 2 3 3 3 3 4 3 3 3 3 3
2 2 2 3 3 3 3 3 3 3 3 3 3 3 3 4 3 3 4 3 3 5 3 3 4 4 4 2 1 2 2 2 2 2 3 3 3 3 4 4 3 3 3 3
2 2 2 2 1 2 3 3 3 2 3 3 3 3 3 3 3 3 3 5 5 5 3 4 5 4 3 1 1 2 2 2 2 2 3 3 3 3 3 3 3 3 3 3
2 2 1 1 2 2 2 2 2 2 2 2 3 3 2 2 3 3 3 4 5 5 3 4 5 4 2 1 1 2 2 2 2 2 2 2 3 3 3 3 3 3 3 3
1 2 2 2 2 2 2 1 2 2 2 3 3 2 2 2 3 3 3 3 4 4 3 3 3 3 2 1 1 2 2 2 3 2 2 3 3 3 3 3 3 3 3 3
1 1 1 2 2 1 1 1 2 2 2 2 3 3 2 2 2 2 3 3 3 3 3 2 2 2 2 2 2 2 2 2 2 2 2 2 3 3 3 3 3 3 3 3
Wind_Direction
269 275 264 252 245 225 223 228 238 260 268 272 293 298 312 331 318 316 331 339 342 330 327 333 344 340 326 309 337 321 273 244 250 241 232 229 234 239 230 222 219 219 223 224
274 261 262 272 258 239 236 240 248 268 276 274 290 314 320 318 322 312 305 311 325 325 323 319 308 301 310 315 310 279 256 248 252 249 238 234 233 236 235 231 223 224 227 227
267 271 303 269 241 223 229 227 224 244 257 294 306 301 298 299 294 288 294 300 300 300 298 303 298 285 281 291 297 270 259 256 245 252 241 238 232 227 233 234 227 227 233 234
275 304 251 247 240 206 225 243 233 254 270 292 296 298 283 265 270 298 310 307 297 299 306 309 308 303 295 297 290 275 281 282 271 282 273 261 240 231 236 242 235 235 240 240
239 255 269 265 227 191 219 268 237 241 270 301 314 312 293 319 353 312 305 298 296 297 298 305 304 301 308 307 297 291 290 291 284 282 275 261 247 241 239 239 243 242 242 238
226 246 255 261 122 20 117 278 271 238 273 299 331 292 280 336 345 340 334 323 321 322 311 304 301 302 299 292 289 285 287 289 287 281 273 253 246 240 243 234 237 241 247 239
229 243 263 253 173 111 187 257 321 323 288 276 243 254 287 317 329 333 328 321 317 306 297 296 307 303 285 285 278 282 297 301 300 292 283 257 247 237 240 236 237 238 244 246
201 225 249 187 138 199 242 293 323 323 307 284 277 296 305 310 314 321 321 311 304 302 301 305 311 303 290 283 290 310 314 305 298 297 298 270 248 248 248 233 238 240 242 257
203 221 250 220 230 257 299 302 303 302 304 303 292 293 300 301 301 300 298 301 302 300 302 306 304 293 289 293 308 315 306 294 290 294 288 270 232 231 237 232 236 243 240 248
262 265 257 254 258 283 294 284 290 293 293 289 277 279 292 297 296 298 297 297 300 302 302 305 310 307 291 303 306 295 288 290 293 288 290 289 256 225 227 233 234 236 242 252
251 270 289 265 266 286 298 300 297 293 289 279 267 270 276 281 282 287 293 295 299 293 292 298 306 303 304 304 299 289 285 288 289 282 276 281 273 235 228 231 228 231 232 236
243 249 252 271 282 299 288 286 285 284 290 288 263 265 273 276 278 283 289 295 297 293 290 293 296 296 297 294 284 278 290 293 287 278 276 276 279 288 262 254 264 262 259 258
251 278 277 279 288 290 283 285 287 278 274 283 283 274 274 275 279 283 285 288 285 284 282 284 287 289 292 294 287 274 276 284 286 289 289 283 273 267 286 289 272 269 271 275
261 277 277 274 279 295 292 294 296 292 285 279 283 284 277 276 281 282 282 281 279 278 277 277 280 287 294 295 284 274 274 278 276 268 273 277 272 268 267 273 283 285 281 279
267 263 254 271 287 297 296 294 291 288 294 295 286 279 277 278 280 280 282 285 283 277 276 279 284 289 298 295 282 275 274 269 267 269 273 274 274 269 266 269 275 282 285 285
281 277 259 264 274 282 287 284 279 281 285 284 284 280 275 274 280 283 284 284 280 281 281 279 281 287 293 285 281 276 271 280 285 275 275 276 274 267 267 271 272 269 268 267
247 256 262 275 277 276 274 272 270 272 281 280 279 284 287 291 293 291 289 283 272 273 272 270 276 287 284 271 262 271 275 275 283 282 270 266 266 265 265 266 267 268 267 267
239 246 247 250 261 272 278 280 275 271 272 273 280 283 283 280 279 284 290 298 299 293 281 272 274 283 276 268 261 262 266 262 260 260 266 269 271 268 266 263 264 268 275 275
262 260 266 265 261 259 268 275 273 271 271 269 269 268 269 272 275 283 294 301 297 294 297 292 300 297 280 276 280 253 255 260 266 266 266 279 286 280 271 266 268 273 273 272
288 278 274 279 285 271 273 277 274 270 267 262 266 275 282 284 284 287 289 282 274 273 281 291 291 280 272 274 286 256 253 257 263 269 268 268 275 280 277 273 271 269 266 263
288 283 276 275 284 283 272 269 266 269 275 264 257 265 274 282 281 279 283 289 292 287 289 299 297 283 279 283 287 268 259 259 262 265 269 273 276 279 278 275 273 273 272 272
277 274 275 276 275 283 284 274 265 270 280 280 272 269 276 284 288 284 269 266 287 308 310 290 281 287 293 295 273 265 264 266 268 266 266 267 270 274 277 276 276 278 276 273
275 272 273 274 272 282 293 288 275 270 275 276 274 274 272 274 276 274 288 291 289 302 309 292 292 296 302 299 274 265 270 271 271 271 269 269 270 272 275 276 277 280 280 280
283 282 277 280 281 284 294 298 292 282 277 278 273 267 267 282 289 274 272 302 312 310 304 303 305 304 310 308 280 273 272 272 271 272 275 275 271 271 274 274 276 280 279 279
272 267 268 276 277 277 283 299 306 299 295 295 290 281 270 260 268 293 304 307 315 321 315 313 314 313 314 297 282 280 280 276 279 284 283 287 286 286 286 285 282 283 284 283
268 274 273 269 273 280 288 302 311 313 316 315 314 311 306 296 285 292 303 306 307 318 323 319 320 320 313 299 296 295 294 299 303 301 293 289 287 288 290 290 289 287 288 289
295 301 309 308 306 306 312 308 302 304 307 304 303 307 309 308 306 308 310 314 317 318 320 321 320 317 317 312 305 300 299 297 293 292 295 294 292 291 293 291 290 293 294 294
Height
1499 1496 1496 1497 1497 1498 1500 1496 1495 1487 1483 1478 1478 1477 1477 1477 1476 1476 1475 1474 1473 1473 1472 1471 1471 1470 1470 1469 1469 1468 1468 1468 1468 1468 1469 1469 1469 1470 1470 1470 1470 1470 1470 1470
1500 1495 1496 1496 1492 1492 1493 1491 1489 1486 1481 1476 1476 1476 1475 1475 1475 1474 1473 1473 1472 1471 1470 1469 1468 1467 1467 1466 1466 1466 1465 1465 1465 1465 1465 1466 1466 1466 1467 1467 1467 1467 1467 1467
1499 1496 1496 1495 1485 1485 1485 1482 1483 1482 1477 1474 1474 1474 1474 1473 1473 1472 1472 1471 1470 1469 1468 1467 1466 1465 1464 1464 1463 1463 1462 1462 1462 1462 1462 1462 1463 1463 1463 1463 1463 1463 1463 1463
1500 1499 1499 1480 1475 1476 1478 1477 1476 1474 1473 1473 1473 1472 1472 1471 1470 1470 1469 1468 1467 1466 1465 1464 1463 1462 1462 1461 1461 1460 1459 1459 1459 1459 1459 1459 1459 1459 1459 1460 1460 1460 1459 1459
1500 1497 1487 1477 1475 1475 1477 1476 1472 1472 1471 1471 1471 1470 1469 1469 1468 1468 1467 1466 1465 1464 1463 1462 1461 1460 1459 1458 1457 1457 1456 1456 1455 1455 1455 1455 1455 1455 1456 1456 1456 1456 1456 1456
1498 1496 1490 1476 1474 1473 1475 1476 1470 1469 1470 1469 1469 1471 1468 1466 1466 1465 1464 1463 1462 1461 1460 1459 1458 1457 1456 1455 1454 1453 1453 1452 1452 1452 1451 1451 1451 1452 1452 1452 1452 1452 1452 1452
1495 1493 1483 1475 1473 1474 1479 1475 1470 1468 1468 1468 1468 1468 1466 1464 1463 1462 1461 1460 1459 1458 1457 1456 1455 1454 1453 1451 1450 1450 1449 1449 1449 1448 1448 1448 1448 1448 1448 1448 1448 1448 1448 1448
1491 1491 1483 1473 1473 1475 1473 1469 1468 1467 1467 1466 1465 1463 1462 1461 1460 1459 1458 1457 1456 1455 1454 1453 1452 1451 1449 1448 1448 1447 1446 1446 1445 1445 1445 1444 1444 1444 1444 1444 1444 1444 1444 1444
1480 1478 1471 1470 1469 1469 1468 1467 1466 1466 1465 1464 1462 1461 1460 1459 1457 1456 1456 1455 1454 1452 1451 1450 1449 1448 1446 1445 1445 1444 1443 1443 1443 1442 1442 1441 1441 1441 1441 1441 1441 1441 1441 1440
1475 1470 1468 1467 1467 1467 1466 1465 1464 1463 1462 1461 1460 1458 1457 1456 1455 1454 1453 1452 1450 1449 1448 1447 1446 1445 1444 1443 1442 1441 1441 1440 1440 1439 1438 1438 1438 1438 1437 1437 1437 1437 1437 1437
1473 1468 1466 1464 1464 1464 1463 1462 1461 1460 1459 1458 1457 1455 1454 1453 1452 1451 1450 1449 1448 1446 1445 1444 1443 1442 1441 1440 1439 1438 1438 1437 1437 1436 1436 1435 1435 1435 1434 1434 1434 1434 1434 1434
1467 1465 1465 1462 1461 1461 1460 1459 1458 1457 1455 1454 1454 1452 1451 1450 1449 1448 1447 1446 1445 1443 1442 1441 1440 1439 1439 1438 1437 1436 1435 1435 1434 1433 1433 1432 1432 1432 1432 1432 1432 1432 1432 1431
1462 1461 1460 1459 1458 1458 1457 1456 1455 1454 1453 1451 1450 1450 1448 1447 1446 1445 1444 1443 1442 1441 1440 1439 1438 1437 1436 1435 1435 1434 1433 1432 1432 1431 1430 1430 1429 1429 1428 1429 1429 1429 1429 1428
1458 1458 1456 1456 1455 1454 1454 1452 1452 1451 1450 1449 1447 1446 1445 1444 1443 1442 1441 1440 1439 1438 1437 1436 1435 1434 1434 1433 1432 1431 1430 1430 1429 1428 1428 1427 1427 1426 1426 1425 1425 1424 1425 1425
1454 1454 1453 1452 1452 1451 1450 1449 1448 1447 1446 1445 1444 1443 1442 1441 1440 1439 1438 1437 1436 1435 1434 1433 1432 1432 1431 1430 1429 1429 1428 1427 1427 1426 1425 1425 1424 1424 1423 1423 1422 1421 1421 1421
1450 1450 1449 1449 1448 1448 1447 1446 1445 1444 1443 1442 1441 1440 1439 1438 1437 1436 1435 1434 1433 1432 1431 1430 1429 1429 1428 1427 1426 1426 1425 1425 1424 1423 1423 1422 1421 1421 1420 1420 1419 1418 1418 1418
1447 1446 1446 1445 1445 1445 1444 1444 1443 1442 1441 1440 1439 1438 1437 1435 1434 1433 1432 1431 1430 1429 1428 1427 1426 1426 1425 1424 1424 1423 1422 1422 1421 1421 1420 1419 1419 1418 1418 1417 1416 1416 1415 1415
1444 1443 1443 1443 1442 1442 1441 1441 1440 1439 1438 1437 1436 1435 1434 1432 1431 1430 1429 1428 1427 1426 1426 1425 1424 1423 1422 1422 1421 1420 1420 1419 1418 1418 1417 1417 1416 1415 1415 1414 1413 1413 1412 1412
1440 1440 1440 1440 1440 1439 1438 1438 1437 1436 1436 1435 1434 1432 1431 1430 1429 1428 1427 1426 1425 1424 1423 1422 1421 1421 1420 1419 1418 1418 1417 1416 1416 1415 1415 1414 1413 1413 1412 1411 1411 1410 1410 1410
1438 1438 1437 1437 1437 1436 1435 1435 1434 1433 1433 1432 1431 1430 1428 1427 1426 1425 1424 1423 1422 1422 1421 1420 1419 1418 1417 1417 1416 1415 1415 1414 1413 1413 1412 1411 1411 1410 1409 1409 1408 1408 1408 1407
1436 1435 1434 1434 1434 1433 1433 1432 1431 1430 1430 1429 1428 1427 1426 1425 1424 1423 1422 1421 1421 1420 1419 1418 1417 1416 1415 1414 1414 1413 1412 1412 1411 1410 1410 1409 1408 1407 1407 1406 1406 1406 1405 1405
1434 1433 1432 1432 1431 1431 1430 1430 1429 1428 1427 1426 1425 1424 1423 1422 1422 1421 1420 1420 1418 1418 1417 1416 1415 1414 1413 1412 1412 1411 1410 1410 1409 1408 1407 1406 1406 1405 1404 1404 1404 1403 1403 1402
1432 1431 1430 1430 1429 1428 1428 1427 1427 1426 1425 1424 1423 1422 1421 1421 1420 1419 1418 1418 1417 1416 1415 1414 1413 1412 1411 1410 1410 1409 1408 1407 1407 1406 1405 1404 1404 1403 1402 1402 1401 1401 1400 1400
1430 1429 1428 1428 1427 1427 1426 1425 1424 1424 1423 1422 1421 1420 1420 1419 1418 1417 1417 1416 1415 1414 1413 1412 1411 1410 1409 1408 1408 1407 1406 1405 1404 1404 1403 1402 1402 1401 1400 1400 1399 1398 1398 1397
1428 1428 1427 1426 1425 1425 1424 1423 1422 1422 1421 1420 1419 1419 1418 1417 1416 1415 1415 1414 1413 1412 1411 1410 1409 1408 1407 1406 1405 1405 1404 1403 1402 1401 1401 1400 1399 1399 1398 1397 1397 1396 1396 1395
1427 1426 1426 1425 1425 1424 1423 1422 1421 1420 1419 1418 1417 1417 1416 1415 1414 1413 1412 1411 1410 1409 1408 1407 1406 1406 1405 1404 1403 1403 1402 1401 1400 1400 1399 1398 1397 1397 1396 1395 1395 1394 1393 1393
1426 1425 1424 1424 1423 1422 1422 1421 1420 1419 1418 1417 1415 1415 1414 1413 1412 1411 1410 1409 1408 1407 1406 1405 1404 1404 1403 1402 1401 1401 1400 1399 1398 1398 1397 1396 1395 1395 1394 1393 1392 1392 1391 1390